Terug naar catalogus

SL-12 DEB

LostHEO
NORAD 29453·DEBRIS·🇷🇺 Russia

Gelanceerd May 31, 1989 vanaf Baikonur Cosmodrome

Loading…

Volgende Passages (komende 24 uur)

TLE

VerouderdSource: Space-Track

Epoch: Dec 3, 2006, 23:54 UTC

1 29453U 89039CX  06337.99611981  .00015431  00000-0  22966+0 0  9993
2 29453  66.3297 231.0283 5460144  58.7974 343.5781  4.36418234  6485

Volg SL-12 DEB in realtime met AllMySat

Download on the App Store